Regional Weather Roundup
Issued by NWS Charleston, WV

Home | Current Version | Previous Version | Graphics & Text | Print | Product List | Glossary On
Versions: 1 2 3 4 5 6 7 8 9 10 11 12 13 14 15 16 17 18 19 20 21 22 23 24 25 26 27 28 29 30 31 32 33 34 35 36 37 38 39 40 41 42 43 44 45 46 47 48 49 50
000
ASUS41 KRLX 060510
RWRRLX
West Virginia Regional Weather Roundup
National Weather Service Charleston WV
100 AM EDT MON JUL 06 2015

Note: "fair" indicates few or no clouds below 12,000 feet with no
significant weather and/or obstructions to visibility.

WVZ003-060600-
Northern Panhandle of West Virginia

CITY           SKY/WX    TMP DP  RH WIND       PRES   REMARKS
WHEELING       CLOUDY    71  62  73 E5        30.08F
$$

WVZ009-060600-
Northwest West Virginia

CITY           SKY/WX    TMP DP  RH WIND       PRES   REMARKS
PARKERSBURG    CLOUDY    72  69  90 CALM      30.08S FOG
$$

WVZ006-060600-
Western West Virginia

CITY           SKY/WX    TMP DP  RH WIND       PRES   REMARKS
HUNTINGTON     FOG       67  67 100 SW5       30.04F VSB 1/4
$$

WVZ015-060600-
West Central West Virginia

CITY           SKY/WX    TMP DP  RH WIND       PRES   REMARKS
CHARLESTON     MOCLDY    66  64  93 E3        30.06S
$$

WVZ022-031-060600-
North Central West Virginia

CITY           SKY/WX    TMP DP  RH WIND       PRES   REMARKS
CLARKSBURG     CLOUDY    70  68  93 NE3       30.08F
MORGANTOWN     CLOUDY    74  64  71 N3        30.10F
$$

WVZ025-035-042-045-060600-
Southern West Virginia

CITY           SKY/WX    TMP DP  RH WIND       PRES   REMARKS
BECKLEY        MOCLDY    66  63  90 SE5       30.12F
LOGAN          CLOUDY    66  66 100 CALM      30.05S
BLUEFIELD      MOCLDY    67  61  81 W5        30.14F
LEWISBURG      RAIN      68  65  89 CALM      30.13F
$$

WVZ047-060600-
Northern Mountains of West Virginia

CITY           SKY/WX    TMP DP  RH WIND       PRES   REMARKS
ELKINS         LGT RAIN  67  64  90 CALM      30.12F
$$

WVZ052-060600-
Eastern Panhandle of West Virginia

CITY           SKY/WX    TMP DP  RH WIND       PRES   REMARKS
MARTINSBURG    CLOUDY    73  69  87 S3        30.13S
PETERSBURG     CLOUDY    69  66  92 CALM      30.12F FOG
$$


USA.gov is the U.S. government's official web portal to all federal, state and local government web resources and services.